EW8073 Weather Reports


Display with metric or nautical units.
time (UTC)temp
F
wind
direction
speed
MPH
gust
MPH
rain 1hr
in
rain 24hr
in
rain mn
in
humidity
%
barometer
mb
20260901093927 62 249 0.0 1.0 0.00 0.08 0.00 87 1018.9
20260901093426 62 249 0.0 1.0 0.00 0.08 0.00 87 1018.8
20260901092925 62 249 0.0 1.0 0.00 0.08 0.00 87 1018.9
20260901091927 62 249 0.0 1.0 0.00 0.08 0.00 87 1018.9
20260901091425 63 249 0.0 1.0 0.00 0.08 0.00 87 1018.9
20260901090924 63 249 0.0 1.0 0.00 0.08 0.00 87 1018.9
20260901090422 63 249 0.0 1.0 0.00 0.08 0.00 87 1018.9
20260901085921 63 249 0.0 0.0 0.00 0.08 0.00 87 1018.9
20260901085424 63 249 0.0 0.0 0.00 0.08 0.00 87 1018.9
20260901084920 63 249 0.0 0.0 0.00 0.08 0.00 87 1018.9
20260901084419 63 249 0.0 0.0 0.00 0.08 0.00 87 1019.0
20260901083919 63 249 0.0 0.0 0.00 0.08 0.00 87 1019.0
20260901083418 63 249 0.0 0.0 0.00 0.08 0.00 87 1019.0
20260901082917 63 249 0.0 0.0 0.00 0.08 0.00 87 1019.2
20260901081915 63 249 0.0 0.0 0.00 0.08 0.00 87 1019.3
20260901081410 63 249 0.0 0.0 0.00 0.08 0.00 87 1019.3
20260901080903 63 249 0.0 0.0 0.00 0.08 0.00 87 1019.4
20260901080357 63 249 0.0 0.0 0.00 0.08 0.00 87 1019.3
20260901075850 63 249 0.0 0.0 0.00 0.08 0.00 87 1019.4
20260901075346 63 249 0.0 0.0 0.00 0.08 0.00 87 1019.4
20260901074838 63 249 0.0 0.0 0.00 0.08 0.00 87 1019.4
20260901074333 63 249 0.0 0.0 0.00 0.08 0.00 87 1019.4
20260901073826 63 249 0.0 0.0 0.00 0.08 0.00 87 1019.6
20260901073320 63 249 0.0 0.0 0.00 0.08 0.00 87 1019.7
20260901072310 63 249 0.0 0.0 0.00 0.08 0.00 86 1019.7
20260901071803 63 249 0.0 0.0 0.00 0.08 0.00 86 1020.2
20260901071257 63 249 0.0 0.0 0.00 0.08 0.00 86 1020.2
20260901070245 63 249 0.0 0.0 0.00 0.08 0.00 86 1020.1
20260901065739 63 249 0.0 0.0 0.00 0.08 0.00 86 1020.0
20260901065232 63 249 0.0 0.0 0.00 0.08 0.00 86 1020.1
20260901064728 63 249 0.0 0.0 0.00 0.08 0.00 86 1020.1
20260901063209 63 249 0.0 0.0 0.00 0.08 0.00 86 1020.0
20260901062703 63 249 0.0 0.0 0.00 0.08 0.00 86 1020.3
20260901062157 63 249 0.0 0.0 0.00 0.08 0.00 85 1020.2
20260901061145 63 249 0.0 0.0 0.00 0.08 0.00 85 1020.1
20260901060639 63 249 0.0 0.0 0.00 0.08 0.00 85 1020.1
20260901060134 63 249 0.0 0.0 0.00 0.08 0.00 85 1020.0
20260901055629 63 249 0.0 0.0 0.00 0.08 0.08 85 1019.7
20260901055130 63 249 0.0 0.0 0.00 0.08 0.08 84 1019.5
20260901054630 63 249 0.0 0.0 0.00 0.08 0.08 84 1019.4
20260901054129 63 249 0.0 0.0 0.00 0.08 0.08 84 1019.6
20260901053629 63 249 0.0 0.0 0.00 0.08 0.08 84 1019.9
20260901053129 63 249 0.0 0.0 0.00 0.08 0.08 84 1019.6
20260901052629 63 249 0.0 0.0 0.00 0.08 0.08 83 1019.7
20260901052129 63 249 0.0 0.0 0.00 0.08 0.08 83 1019.7
20260901051123 63 249 0.0 0.0 0.00 0.08 0.08 83 1019.6
20260901050617 63 249 0.0 0.0 0.00 0.08 0.08 83 1019.5
20260901050112 63 249 0.0 0.0 0.00 0.08 0.08 83 1019.5
20260901045612 63 249 0.0 0.0 0.00 0.08 0.08 83 1019.6
20260901045109 64 249 0.0 1.0 0.00 0.08 0.08 83 1019.5
20260901044609 64 249 0.0 1.0 0.00 0.08 0.08 82 1019.5
20260901044110 64 249 0.0 1.0 0.00 0.08 0.08 82 1019.5
20260901043610 64 249 0.0 1.0 0.01 0.08 0.08 82 1019.4
20260901043108 64 249 0.0 1.0 0.01 0.08 0.08 82 1019.5
20260901042607 64 98 0.0 0.0 0.01 0.08 0.08 81 1019.3
20260901042104 64 98 0.0 0.0 0.02 0.08 0.08 81 1019.2
20260901041604 64 98 0.0 2.0 0.02 0.08 0.08 81 1019.0
20260901041103 65 98 0.0 2.0 0.03 0.08 0.08 81 1018.9
20260901040603 65 136 0.0 1.0 0.03 0.08 0.08 80 1019.2
20260901035600 65 236 0.0 0.0 0.03 0.08 0.08 79 1019.7
20260901035057 65 236 0.0 2.0 0.03 0.08 0.08 79 1019.9
20260901034557 65 236 0.0 2.0 0.03 0.08 0.08 79 1020.1
20260901034057 65 236 0.0 1.0 0.03 0.08 0.08 78 1020.3
20260901033555 66 236 1.0 4.0 0.02 0.07 0.07 78 1020.4
20260901033053 66 235 1.0 4.0 0.02 0.07 0.07 77 1020.2
20260901032555 66 343 1.0 4.0 0.02 0.07 0.07 77 1019.7
20260901032049 66 253 2.0 8.0 0.01 0.06 0.06 76 1020.6
20260901031543 67 246 3.0 8.0 0.01 0.06 0.06 75 1020.8
20260901030532 67 242 4.0 11.0 0.01 0.05 0.05 73 1021.0
20260901030025 67 257 4.0 11.0 0.03 0.05 0.05 72 1021.0
20260901025519 67 243 3.0 11.0 0.03 0.05 0.05 72 1020.9
20260901025013 67 229 2.0 11.0 0.03 0.05 0.05 72 1020.6
20260901024507 67 234 2.0 11.0 0.04 0.05 0.05 72 1020.2
20260901023455 68 243 1.0 7.0 0.04 0.05 0.05 73 1019.7
20260901022949 68 338 0.0 0.0 0.04 0.05 0.05 71 1019.2
20260901022444 69 338 0.0 1.0 0.05 0.05 0.05 71 1018.8
20260901021938 69 338 0.0 0.0 0.05 0.05 0.05 70 1018.6
20260901020925 70 337 0.0 0.0 0.05 0.05 0.05 67 1018.5
20260901020422 70 338 0.0 0.0 0.03 0.03 0.03 66 1018.3
20260901015915 70 338 0.0 0.0 0.02 0.02 0.02 64 1018.5
20260901015408 71 338 0.0 0.0 0.02 0.02 0.02 63 1018.5
20260901014903 71 338 0.0 0.0 0.02 0.02 0.02 62 1018.2
20260901014355 72 338 0.0 4.0 0.01 0.01 0.01 60 1018.1
20260901013849 72 348 1.0 5.0 0.01 0.01 0.01 59 1018.0
20260901013343 74 337 1.0 10.0 0.01 0.01 0.01 56 1018.0
20260901012838 75 199 1.0 10.0 0.00 0.00 0.00 53 1018.1
20260901012333 77 348 0.0 3.0 0.00 0.00 0.00 51 1018.1
20260901011826 79 318 0.0 3.0 0.00 0.00 0.00 47 1017.9
20260901011320 81 332 0.0 2.0 0.00 0.00 0.00 40 1017.9
20260901010814 81 38 0.0 1.0 0.00 0.00 0.00 31 1017.9
20260901010310 82 123 0.0 0.0 0.00 0.00 0.00 31 1017.2
20260901005801 82 177 0.0 0.0 0.00 0.00 0.00 30 1017.1
20260901005255 82 177 0.0 0.0 0.00 0.00 0.00 31 1016.9
20260901004750 82 177 0.0 0.0 0.00 0.00 0.00 30 1016.9
20260901004243 82 187 0.0 0.0 0.00 0.00 0.00 31 1016.9
20260901003737 82 123 0.0 0.0 0.00 0.00 0.00 32 1017.1
20260901002725 83 84 0.0 0.0 0.00 0.00 0.00 32 1017.1
20260901002220 83 125 0.0 0.0 0.00 0.00 0.00 31 1017.1
20260901001714 83 125 0.0 0.0 0.00 0.00 0.00 31 1016.9
20260901001207 84 125 0.0 0.0 0.00 0.00 0.00 31 1017.1
20260901000703 84 125 0.0 1.0 0.00 0.00 0.00 30 1017.2
20260901000157 84 144 0.0 1.0 0.00 0.00 0.00 30 1017.1
20260831235651 85 134 0.0 0.0 0.00 0.00 0.00 30 1017.1
20260831235144 85 114 0.0 0.0 0.00 0.00 0.00 30 1017.1
20260831234637 85 114 0.0 0.0 0.00 0.00 0.00 30 1017.2
20260831234132 85 111 0.0 0.0 0.00 0.00 0.00 29 1017.2
20260831233626 86 98 0.0 0.0 0.00 0.00 0.00 31 1017.2
20260831233119 85 99 0.0 0.0 0.00 0.00 0.00 31 1017.1
20260831232613 85 99 0.0 0.0 0.00 0.00 0.00 31 1017.1
20260831232107 86 100 0.0 1.0 0.00 0.00 0.00 30 1017.1
20260831231601 86 173 0.0 1.0 0.00 0.00 0.00 30 1017.1
20260831231057 87 152 0.0 0.0 0.00 0.00 0.00 31 1017.1
20260831230550 87 152 0.0 0.0 0.00 0.00 0.00 31 1017.2
20260831230043 87 161 0.0 1.0 0.00 0.00 0.00 32 1017.2
20260831225538 86 159 0.0 1.0 0.00 0.00 0.00 32 1017.3
20260831225031 86 123 0.0 1.0 0.00 0.00 0.00 31 1017.4
20260831224525 86 144 0.0 1.0 0.00 0.00 0.00 30 1017.3
20260831224020 85 134 0.0 0.0 0.00 0.00 0.00 32 1017.4
20260831223513 86 135 0.0 0.0 0.00 0.00 0.00 33 1017.4
20260831223007 86 134 0.0 0.0 0.00 0.00 0.00 35 1017.5
20260831222505 86 132 0.0 0.0 0.00 0.01 0.00 32 1017.5
20260831222005 85 146 0.0 1.0 0.00 0.01 0.00 34 1017.5
20260831221501 85 146 0.0 1.0 0.00 0.01 0.00 30 1017.5
20260831221001 85 154 0.0 1.0 0.00 0.01 0.00 32 1017.6
20260831215959 85 76 0.0 1.0 0.00 0.01 0.00 33 1017.6
20260831214956 86 103 0.0 0.0 0.00 0.01 0.00 31 1017.8
20260831214455 86 101 0.0 0.0 0.00 0.01 0.00 32 1017.9
20260831213954 85 342 0.0 0.0 0.00 0.01 0.00 33 1017.8
20260831213454 84 342 0.0 0.0 0.00 0.01 0.00 34 1017.8
20260831212455 84 307 0.0 0.0 0.00 0.01 0.00 36 1017.9
20260831211950 84 257 0.0 2.0 0.00 0.01 0.00 34 1018.0
20260831211451 85 211 0.0 2.0 0.00 0.01 0.00 38 1018.1
20260831210951 84 170 0.0 1.0 0.00 0.01 0.00 40 1018.2
20260831210450 84 170 0.0 1.0 0.00 0.01 0.00 37 1018.3
20260831205951 83 31 0.0 0.0 0.00 0.01 0.00 39 1018.3
20260831204450 82 138 0.0 0.0 0.00 0.01 0.00 38 1018.7
20260831203951 82 138 0.0 0.0 0.00 0.02 0.00 38 1018.7
20260831203450 82 138 0.0 0.0 0.00 0.02 0.00 39 1018.8
20260831202950 82 139 0.0 0.0 0.00 0.02 0.00 38 1018.9
20260831202451 82 238 0.0 0.0 0.00 0.02 0.00 37 1019.0
20260831201950 82 238 0.0 0.0 0.00 0.02 0.00 38 1019.0
20260831200951 82 259 0.0 0.0 0.00 0.02 0.00 38 1019.2
20260831200450 82 259 0.0 0.0 0.00 0.02 0.00 38 1019.3
20260831195447 82 240 0.0 0.0 0.00 0.02 0.00 38 1019.3
20260831194941 82 244 0.0 0.0 0.00 0.02 0.00 39 1019.3
20260831194434 82 244 0.0 0.0 0.00 0.02 0.00 38 1019.4
20260831193927 81 244 0.0 0.0 0.00 0.02 0.00 36 1019.4
20260831193422 81 244 0.0 0.0 0.00 0.02 0.00 37 1019.5
20260831192916 81 244 0.0 0.0 0.00 0.02 0.00 40 1019.6
20260831192410 81 244 0.0 0.0 0.00 0.02 0.00 40 1019.6
20260831191904 81 244 0.0 0.0 0.00 0.02 0.00 39 1019.7
20260831190852 81 245 0.0 0.0 0.00 0.02 0.00 41 1020.0
20260831190346 81 245 0.0 0.0 0.00 0.02 0.00 40 1020.0
20260831185840 80 245 0.0 0.0 0.00 0.02 0.00 40 1020.1
20260831184825 80 245 0.0 0.0 0.00 0.02 0.00 39 1020.1
20260831184320 80 245 0.0 0.0 0.00 0.02 0.00 41 1020.2
20260831183813 80 245 0.0 0.0 0.00 0.02 0.00 41 1020.2
20260831183307 80 245 0.0 0.0 0.00 0.02 0.00 40 1020.2
20260831182802 80 244 0.0 0.0 0.00 0.02 0.00 40 1020.2
20260831181749 80 244 0.0 0.0 0.00 0.02 0.00 40 1020.3
20260831181244 79 244 0.0 0.0 0.00 0.02 0.00 40 1020.3
20260831180739 79 244 0.0 0.0 0.00 0.02 0.00 40 1020.4
20260831180232 79 244 0.0 0.0 0.00 0.02 0.00 40 1020.4
20260831175726 79 243 0.0 0.0 0.00 0.02 0.00 43 1020.4
20260831175219 79 243 0.0 0.0 0.00 0.02 0.00 41 1020.4
20260831174713 79 243 0.0 0.0 0.00 0.02 0.00 43 1020.4
20260831174208 79 243 0.0 0.0 0.00 0.02 0.00 42 1020.6
20260831173701 79 243 0.0 0.0 0.00 0.02 0.00 43 1020.6
20260831173155 79 243 0.0 0.0 0.00 0.02 0.00 43 1020.6
20260831172652 78 243 0.0 0.0 0.00 0.02 0.00 47 1020.7
20260831172143 78 243 0.0 0.0 0.00 0.02 0.00 46 1020.7
20260831171132 78 243 0.0 0.0 0.00 0.02 0.00 45 1020.7
20260831170119 78 243 0.0 0.0 0.00 0.02 0.00 45 1020.8
20260831165614 78 243 0.0 0.0 0.00 0.02 0.00 45 1020.7
20260831165109 77 243 0.0 0.0 0.00 0.02 0.00 47 1020.7
20260831164603 77 244 0.0 0.0 0.00 0.02 0.00 47 1020.7
20260831164056 77 244 0.0 0.0 0.00 0.02 0.00 48 1020.8
20260831163549 77 244 0.0 0.0 0.00 0.02 0.00 47 1020.7
20260831163044 76 243 0.0 0.0 0.00 0.02 0.00 49 1020.7
20260831162538 76 243 0.0 0.0 0.00 0.02 0.00 48 1020.6
20260831162033 76 243 0.0 0.0 0.00 0.02 0.00 50 1020.6
20260831161527 75 244 0.0 0.0 0.00 0.02 0.00 49 1020.6
20260831161021 75 244 0.0 0.0 0.00 0.02 0.00 48 1020.6
20260831160515 75 244 0.0 0.0 0.00 0.02 0.00 49 1020.6
20260831154957 74 248 0.0 0.0 0.00 0.02 0.00 52 1020.3
20260831154450 74 248 0.0 0.0 0.00 0.02 0.00 53 1020.2
20260831153943 73 248 0.0 0.0 0.00 0.02 0.00 52 1020.2
20260831153438 73 248 0.0 0.0 0.00 0.02 0.00 52 1020.2
20260831152932 73 248 0.0 0.0 0.00 0.02 0.00 51 1020.2
20260831152427 72 249 0.0 0.0 0.00 0.02 0.00 53 1020.1
20260831151920 72 248 0.0 0.0 0.00 0.02 0.00 55 1020.2
20260831151413 71 249 0.0 1.0 0.00 0.02 0.00 55 1020.1
20260831150908 71 249 0.0 1.0 0.00 0.02 0.00 54 1020.3
20260831150402 71 252 0.0 1.0 0.00 0.02 0.00 57 1020.2
20260831145856 71 252 0.0 1.0 0.00 0.02 0.00 57 1020.2
20260831145350 70 245 0.0 2.0 0.00 0.02 0.00 57 1020.2
20260831144844 70 255 0.0 2.0 0.00 0.02 0.00 58 1020.3
20260831143833 69 248 0.0 0.0 0.00 0.02 0.00 62 1020.2
20260831143327 68 247 0.0 0.0 0.00 0.02 0.00 63 1020.2
20260831142820 68 249 0.0 0.0 0.00 0.02 0.00 64 1020.1
20260831142314 67 248 0.0 1.0 0.00 0.02 0.00 65 1020.0
20260831141808 67 248 0.0 1.0 0.00 0.02 0.00 67 1020.0
20260831141301 66 248 0.0 1.0 0.00 0.02 0.00 69 1020.0
20260831140755 65 241 0.0 1.0 0.00 0.02 0.00 72 1020.0
20260831140250 65 229 0.0 0.0 0.00 0.02 0.00 73 1020.0
20260831135744 64 229 0.0 0.0 0.00 0.02 0.00 74 1020.0
20260831135245 63 229 0.0 0.0 0.00 0.02 0.00 74 1019.9
20260831134239 62 229 0.0 0.0 0.00 0.02 0.00 74 1019.7
20260831133737 62 229 0.0 0.0 0.00 0.02 0.00 75 1019.6
20260831132733 61 229 0.0 0.0 0.00 0.02 0.00 75 1019.5
20260831132232 61 229 0.0 0.0 0.00 0.02 0.00 75 1019.5
20260831131729 61 229 0.0 0.0 0.00 0.02 0.00 74 1019.4
20260831131228 61 229 0.0 0.0 0.00 0.02 0.00 74 1019.3
20260831130223 61 229 0.0 0.0 0.00 0.02 0.00 73 1019.3
20260831125219 61 229 0.0 0.0 0.00 0.02 0.00 72 1019.3
20260831124721 61 229 0.0 0.0 0.00 0.02 0.00 72 1019.2
20260831124217 61 229 0.0 0.0 0.00 0.02 0.00 72 1019.0
20260831123715 61 229 0.0 0.0 0.00 0.02 0.00 71 1018.9
20260831123214 61 229 0.0 0.0 0.00 0.02 0.00 71 1018.9
20260831122713 61 229 0.0 0.0 0.00 0.02 0.00 71 1018.8
20260831122215 61 229 0.0 0.0 0.00 0.02 0.00 70 1018.8
20260831121711 61 229 0.0 0.0 0.00 0.02 0.00 70 1018.7
20260831120209 62 229 0.0 0.0 0.00 0.02 0.00 70 1018.6
20260831114709 62 229 0.0 0.0 0.00 0.02 0.00 70 1018.6
20260831114210 62 229 0.0 0.0 0.00 0.02 0.00 70 1018.6
20260831113711 62 229 0.0 0.0 0.00 0.02 0.00 70 1018.6
20260831113209 62 229 0.0 0.0 0.00 0.02 0.00 70 1018.5
20260831112706 62 229 0.0 0.0 0.00 0.02 0.00 70 1018.3
20260831112206 62 229 0.0 0.0 0.00 0.02 0.00 70 1018.3
20260831111706 62 229 0.0 0.0 0.00 0.02 0.00 70 1018.2
20260831111205 62 229 0.0 0.0 0.00 0.02 0.00 70 1018.1
20260831110706 62 229 0.0 0.0 0.00 0.02 0.00 70 1018.1
20260831110208 62 229 0.0 0.0 0.00 0.02 0.00 70 1018.2
20260831105708 62 229 0.0 0.0 0.00 0.02 0.00 70 1018.2
20260831105208 62 229 0.0 0.0 0.00 0.02 0.00 70 1018.1
20260831104708 62 229 0.0 0.0 0.00 0.02 0.00 70 1018.0
20260831104204 62 229 0.0 0.0 0.00 0.02 0.00 70 1018.0
20260831103704 62 229 0.0 0.0 0.00 0.02 0.00 70 1018.1
20260831103204 62 229 0.0 0.0 0.00 0.02 0.00 70 1018.1
20260831102702 62 229 0.0 0.0 0.00 0.02 0.00 70 1018.1
20260831102201 62 229 0.0 0.0 0.00 0.02 0.00 70 1018.1
20260831101701 62 229 0.0 0.0 0.00 0.02 0.00 70 1018.1
20260831101203 62 229 0.0 0.0 0.00 0.02 0.00 70 1018.2
20260831100701 62 229 0.0 0.0 0.00 0.02 0.00 70 1018.1
20260831100202 62 229 0.0 0.0 0.00 0.02 0.00 70 1018.1
20260831095702 63 229 0.0 0.0 0.00 0.02 0.00 70 1018.0
20260831095201 63 229 0.0 0.0 0.00 0.02 0.00 70 1017.9
20260831094701 63 229 0.0 0.0 0.00 0.02 0.00 70 1017.9